Regional Weather Roundup
Issued by NWS

Home | Current Version | Previous Version | Text Only | Print | Product List | Glossary Off
Versions: 1 2 3 4 5 6 7 8 9 10 11 12 13 14 15 16 17 18 19 20 21 22 23 24 25 26 27 28 29 30 31 32 33 34 35 36 37 38 39 40 41 42 43 44 45 46 47 48 49 50

000
ASUS43 KDMX 190006
RWRIA

WEATHER ROUNDUP FOR IOWA
NATIONAL WEATHER SERVICE DES MOINES IA
600 PM CST SAT FEB 18 2017

NOTE: "FAIR" INDICATES FEW OR NO CLOUDS BELOW 12,000 FEET WITH NO
SIGNIFICANT WEATHER AND/OR OBSTRUCTIONS TO VISIBILITY.

* - THESE STATIONS ARE NOT NWS STATIONS...THUS NOT UNDER NWS
QUALITY CONTROL.  THEY ALSO DO NOT REPORT WEATHER SUCH
AS PRECIPITATION OR FOG.

IAZ001>003-012>014-020>022-031>034-043>046-190100-
   NORTHWEST IOWA

CITY           SKY/WX    TMP DP  RH WIND       PRES   REMARKS
CARROLL *      CLEAR     54  43  66 E6        29.79S
CHEROKEE *     CLEAR     49  38  66 CALM      29.80R
DENISON *      CLEAR     55  36  47 E5        29.77S
LE MARS *      CLEAR     55  39  54 CALM      29.80R
SHELDON *      CLEAR     54  46  76 S3        29.78S
SIOUX CITY     CLEAR     59  38  45 SE6       29.79R
6HR MIN TEMP:  54; 6HR MAX TEMP:  66;

SPENCER        CLEAR     53  43  68 E3        29.80R
6HR MIN TEMP:  52; 6HR MAX TEMP:  59;

STORM LAKE *   CLEAR     50  41  71 E5        29.80R
$$

IAZ055>058-069>071-079>083-090>094-190100-
   SOUTHWEST IOWA

CITY           SKY/WX    TMP DP  RH WIND       PRES   REMARKS
ATLANTIC *     CLEAR     57  36  44 CALM      29.79R
CLARINDA *     CLEAR     61  30  31 E3          N/A
COUNCIL BLFS * CLEAR     59  34  38 E3        29.79S
CRESTON *      CLEAR     59  32  36 CALM      29.82R
HARLAN  *      CLEAR     54  39  58 S3        29.82S
LAMONI         CLEAR     63  30  28 CALM      29.79R
6HR MIN TEMP:  62; 6HR MAX TEMP:  69;

RED OAK *      CLEAR     59  32  36 CALM      29.79R
SHENANDOAH *   CLEAR     63  32  31 E5        29.79R
$$

IAZ047>049-059>061-072>074-084-190100-
   CENTRAL IOWA

CITY           SKY/WX    TMP DP  RH WIND       PRES   REMARKS
AMES           CLEAR     54  43  66 N3        29.80R
6HR MIN TEMP:  54; 6HR MAX TEMP:  63;

ANKENY *       CLEAR     55  37  50 N5        29.81R
BOONE *        CLEAR     52  45  76 E5        29.79S
CHARITON *     CLEAR     61  32  33 NE5       29.80R
DES MOINES     PTCLDY    60  31  33 NW3       29.80R
6HR MIN TEMP:  58; 6HR MAX TEMP:  67;

GRINNELL*      CLEAR     52  36  54 NW5       29.81R
KNOXVILLE *    CLEAR     59  32  36 NE3       29.79R
MARSHALLTOWN   CLEAR     53  42  66 N6        29.79R
6HR MIN TEMP:  53; 6HR MAX TEMP:  62;

NEWTON *       CLEAR     57  36  44 N5        29.79S
PELLA *        CLEAR     58  33  38 CALM      29.81R
PERRY *          N/A     54  38  54 NE5       29.80S
$$

IAZ004>006-015-016-023>025-035-036-190100-
   NORTH CENTRAL IOWA

CITY           SKY/WX    TMP DP  RH WIND       PRES   REMARKS
ALGONA *       CLEAR     52  45  76 E3        29.81R
CLARION *      CLEAR     52  52 100 NE3       29.81R
ESTHERVILLE    CLEAR     48  44  86 CALM      29.80R
6HR MIN TEMP:  47; 6HR MAX TEMP:  57;

FORT DODGE *   CLEAR     48  39  71 NE5       29.81R
MASON CITY     CLEAR     47  41  80 NE5       29.81S
6HR MIN TEMP:  47; 6HR MAX TEMP:  59;

FOREST CITY *    N/A     46  32  57 CALM      29.81R
IOWA FALLS *     N/A     51  46  83 CALM      29.81S
$$

IAZ007>011-017>019-026>030-037>042-050>054-066-190100-
   NORTHEAST IOWA

CITY           SKY/WX    TMP DP  RH WIND       PRES   REMARKS
CEDAR RAPIDS   CLEAR     50  37  61 NW6       29.79R
6HR MIN TEMP:  50; 6HR MAX TEMP:  63;

CHARLES CITY * CLEAR     48  46  93 N6        29.82R
CLINTON *      CLEAR     51  36  56 MISG      29.79R
DECORAH *      CLEAR     48  41  76 W3        29.80R
DUBUQUE        CLEAR     50  39  66 NW7       29.79R
6HR MIN TEMP:  50; 6HR MAX TEMP:  64;

MONTICELLO *   CLEAR     52  41  66 NW3       29.79R
OELWEIN *      CLEAR     50  45  81 NW5       29.81R
WATERLOO       CLEAR     46  40  79 N6        29.80R
6HR MIN TEMP:  46; 6HR MAX TEMP:  60;

$$

IAZ064-065-067-068-078-190100-
   EAST CENTRAL IOWA

CITY           SKY/WX    TMP DP  RH WIND       PRES   REMARKS
DAVENPORT      CLEAR     55  37  50 NW6       29.79R
6HR MIN TEMP:  55; 6HR MAX TEMP:  66;

IOWA CITY      CLEAR     56  35  45 NW3       29.81R
6HR MIN TEMP:  56; 6HR MAX TEMP:  67;

MUSCATINE *    CLEAR     57  32  38 NW5       29.79R
QUAD CITIES    CLEAR     61  31  32 NW5       29.77R
6HR MIN TEMP:  61; 6HR MAX TEMP:  70;

$$

IAZ062-063-075>077-085>089-095>099-190100-
   SOUTHEAST IOWA

CITY           SKY/WX    TMP DP  RH WIND       PRES   REMARKS
BURLINGTON     CLEAR     62  36  37 NW5       29.78R
6HR MIN TEMP:  62; 6HR MAX TEMP:  69;

FAIRFIELD *    CLEAR     55  30  38 NW7       29.79R
KEOKUK *       CLEAR     61  39  44 CALM      29.78R
OTTUMWA        CLEAR     58  30  34 N3        29.79R
6HR MIN TEMP:  58; 6HR MAX TEMP:  67;

WASHINGTON *   CLEAR     57  34  41 N5        29.81R HAZE
$$

ABBREVIATIONS USED IN REMARKS
   TC - TEMPERATURES IN CELSIUS
  WCI - WIND CHILL INDEX
   HX - HEAT INDEX
  VSB - VISIBILITY
$$




USA.gov is the U.S. government's official web portal to all federal, state and local government web resources and services.